Location: Columbia
(38.9520°N, 92.3340°W)
Time: 03:04:04
(UTC-05:00)

Cosmos 2219 Rocket - Visible Passes

Search period start: 23 July 2014 00:00
Search period end: 02 August 2014 00:00
Orbit: 830 x 845 km, 71.0° (Epoch: 22 July)

Date Brightness Start Highest point End Pass type
(mag) Time Alt. Az. Time Alt. Az. Time Alt. Az.
23 Jul 2.9 00:00:00 40° ENE 00:00:09 40° ENE 00:00:19 40° ENE visible
23 Jul 3.9 01:39:18 10° NW 01:42:01 22° WNW 01:42:01 22° WNW visible
23 Jul 3.0 23:38:41 10° N 23:43:52 37° ENE 23:44:14 37° ENE visible
24 Jul 3.8 01:22:56 10° NW 01:25:56 24° WNW 01:25:56 24° WNW visible
24 Jul 3.1 23:22:29 10° N 23:27:35 35° ENE 23:28:11 34° ENE visible
25 Jul 3.7 01:06:35 10° NW 01:09:53 27° WNW 01:09:53 27° WNW visible
25 Jul 3.2 23:06:18 10° N 23:11:18 32° ENE 23:12:10 31° ENE visible
26 Jul 3.5 00:50:15 10° NW 00:53:52 30° WNW 00:53:52 30° WNW visible
26 Jul 3.3 22:50:07 10° N 22:55:01 30° ENE 22:56:10 28° E visible
27 Jul 3.4 00:33:55 10° NW 00:37:53 33° W 00:37:53 33° W visible
27 Jul 3.4 22:33:57 10° N 22:38:44 28° ENE 22:40:13 25° E visible
28 Jul 3.2 00:17:36 10° NW 00:21:56 37° W 00:21:56 37° W visible
28 Jul 3.5 22:17:46 10° N 22:22:26 26° ENE 22:24:18 22° E visible
29 Jul 3.0 00:01:17 10° NW 00:06:01 41° W 00:06:01 41° W visible
29 Jul 3.6 22:01:37 10° N 22:06:09 25° NE 22:08:25 19° E visible
29 Jul 2.8 23:44:59 10° NW 23:50:08 46° W 23:50:08 46° W visible
30 Jul 3.6 21:45:27 10° N 21:49:51 23° NE 21:52:34 17° E visible
30 Jul 2.6 23:28:41 10° NNW 23:34:04 50° WSW 23:34:17 50° WSW visible
31 Jul 3.7 21:29:19 10° N 21:33:33 22° NE 21:36:45 14° E visible
31 Jul 2.5 23:12:24 10° NNW 23:17:50 54° WSW 23:18:28 51° SW visible
01 Aug 3.8 21:13:11 10° N 21:17:15 20° NE 21:20:58 11° E visible
01 Aug 2.5 22:56:07 10° NNW 23:01:36 59° WSW 23:02:42 50° SSW visible
